Simultaneous Nadir Overpasses (SNOs) Predictions

Prediction of SNOs between NOAA-20 and NOAA-19 Satellite Orbit:

Table of predicted SNOs for the next 14.0 days since TLE Epoch: 2/24/2024
Index Date (NOAA-20) Time (NOAA-20) Lat,Lon (NOAA-20) SZA (NOAA-20 ) Date (NOAA-19) Time (NOAA-19) Lat,Lon (NOAA-19) SZA (NOAA-19 ) Distance(km) Time Diff (sec)
1 02/27/2024 14:35:58 -73.54, 131.19 97.75 02/27/2024 14:34:46 -73.56, 130.07 97.64 35.24 72
2 02/27/2024 15:26:49 73.79, -62.08 82.52 02/27/2024 15:25:43 73.78, -62.14 82.53 1.84 66
3 02/27/2024 16:17:33 -73.79, 105.22 97.49 02/27/2024 16:16:39 -73.82, 105.22 97.46 2.63 54
4 02/27/2024 17:08:19 73.79, -87.47 82.50 02/27/2024 17:07:41 73.80, -87.59 82.52 3.61 38
5 02/27/2024 17:59:04 -73.85, 79.71 97.46 02/27/2024 17:58:37 -73.83, 79.77 97.47 2.45 27
6 02/27/2024 18:49:50 73.85,-112.98 82.53 02/27/2024 18:49:38 73.86,-112.91 82.55 2.71 12
7 02/27/2024 19:40:34 -73.85, 54.32 97.48 02/27/2024 19:40:35 -73.85, 54.32 97.48 0.36 1
8 02/27/2024 20:31:20 73.85,-138.36 82.51 02/27/2024 20:31:36 73.88,-138.36 82.53 3.08 16
9 02/27/2024 21:22:04 -73.86, 28.94 97.50 02/27/2024 21:22:33 -73.87, 28.87 97.50 2.17 29
10 02/27/2024 22:12:51 73.91,-163.87 82.55 02/27/2024 22:13:34 73.90,-163.80 82.52 2.34 43
11 02/27/2024 23:03:35 -73.91, 3.43 97.47 02/27/2024 23:04:31 -73.88, 3.42 97.51 3.34 56
12 02/27/2024 23:54:21 73.91, 170.74 82.53 02/27/2024 23:55:32 73.91, 170.75 82.51 0.28 71
13 02/28/2024 00:45:12 -74.26, -22.81 97.10 02/28/2024 00:46:22 -74.24, -21.14 97.25 50.46 70



Historial Predications of SNOs between NOAA-20 and NOAA-19
